Weather History for Winnemucca, NV

Change the Weather History Date:

Tuesday, June 18, 2013

  Actual Average Record
Temperature  
Mean Temperature 66 °F 65 °F  
Max Temperature 86 °F 84 °F 103 °F (1940)
Min Temperature 46 °F 46 °F 27 °F (1973)
Degree Days  
Heating Degree Days 0 3  
Month to date heating degree days 21 84  
Since 1 June heating degree days 21 84  
Since 1 July heating degree days 6361 6284  
Cooling Degree Days 1 3  
Month to date cooling degree days 62 31  
Year to date cooling degree days 63 42  
Since 1 June cooling degree days 62 31  
Growing Degree Days 16 (Base 50)    
Moisture  
Dew Point 20 °F    
Average Humidity 20    
Maximum Humidity 31    
Minimum Humidity 8    
Precipitation  
Precipitation 0.00 in 0.02 in 0.58 in (1894)
Month to date precipitation 0.07 0.42  
Year to date precipitation 1.90 4.79  
Snow  
Snow 0.00 in 0.00 in 0.00 in (1877)
Month to date snowfall 0.0 0.0  
Since 1 June snowfall 0.0 0.0  
Since 1 July snowfall 21.9 20.9  
Snow Depth 0.00 in    
Sea Level Pressure  
Sea Level Pressure 29.75 in    
Wind  
Wind Speed 10 mph (WSW)    
Max Wind Speed 29 mph    
Max Gust Speed 37 mph    
Visibility 10 miles    
Events      
T = Trace of Precipitation, MM = Missing Value Source: NWS Daily Summary

Daily Weather History Graph

Daily Weather History Graph

Search for Another Location

Airport:

Trip Planner

Search our weather history database for the weather conditions in past years. The results will help you decide how hot, cold, wet, or windy it might be!

Date:

Astronomy

Jun. 18, 2013 Rise Set
Actual Time 5:19 AM PDT 8:25 PM PDT
Civil Twilight 4:45 AM PDT 8:59 PM PDT
Nautical Twilight 4:02 AM PDT 9:42 PM PDT
Astronomical Twilight 3:11 AM PDT 10:33 PM PDT
Moon 3:14 PM PDT (6/18) 1:31 AM PDT (6/18)
Length of Visible Light 16h 13m
Length of Day
15h 06m
Waxing Gibbous, 72% of the Moon is Illuminated
Jun 18
Waxing Gibbous
Jun 23
Full
Jun 29
Last Quarter
Jul 8
New
Jul 15
First Quarter

Hourly Weather History & Observations

Time (PDT) Temp. Dew Point Humidity Pressure Visibility Wind Dir Wind Speed Gust Speed Precip Events Conditions
12:56 AM 66.0 °F 24.1 °F 20% 29.84 in 10.0 mi Variable 5.8 mph - N/A   Clear
1:56 AM 60.1 °F 23.0 °F 24% 29.85 in 10.0 mi West 3.5 mph - N/A   Clear
2:56 AM 57.0 °F 19.9 °F 24% 29.85 in 10.0 mi Calm Calm - N/A   Clear
3:56 AM 54.0 °F 19.9 °F 26% 29.86 in 10.0 mi NW 3.5 mph - N/A   Clear
4:56 AM 51.1 °F 19.9 °F 29% 29.85 in 10.0 mi Variable 3.5 mph - N/A   Clear
5:56 AM 48.0 °F 19.9 °F 33% 29.86 in 10.0 mi SSW 3.5 mph - N/A   Clear
6:56 AM 55.9 °F 21.9 °F 27% 29.84 in 10.0 mi SSE 5.8 mph - N/A   Clear
7:56 AM 63.0 °F 24.1 °F 23% 29.84 in 10.0 mi Calm Calm - N/A   Clear
8:56 AM 69.1 °F 24.1 °F 18% 29.83 in 10.0 mi Calm Calm - N/A   Clear
9:56 AM 72.0 °F 21.9 °F 15% 29.80 in 10.0 mi Calm Calm - N/A   Clear
10:56 AM 75.0 °F 19.9 °F 13% 29.77 in 10.0 mi Variable 3.5 mph - N/A   Clear
11:56 AM 78.1 °F 19.9 °F 11% 29.74 in 10.0 mi Calm Calm - N/A   Clear
12:56 PM 82.9 °F 19.0 °F 9% 29.69 in 10.0 mi WSW 12.7 mph 19.6 mph N/A   Clear
1:56 PM 84.0 °F 16.0 °F 8% 29.67 in 10.0 mi SSW 11.5 mph 24.2 mph N/A   Clear
2:56 PM 82.9 °F 16.0 °F 8% 29.66 in 10.0 mi WSW 17.3 mph 28.8 mph N/A   Clear
3:56 PM 80.1 °F 18.0 °F 10% 29.65 in 10.0 mi WNW 16.1 mph 29.9 mph N/A   Clear
4:56 PM 80.1 °F 17.1 °F 9% 29.63 in 10.0 mi West 25.3 mph 36.8 mph N/A   Clear
5:56 PM 73.0 °F 15.1 °F 11% 29.67 in 10.0 mi WNW 21.9 mph 33.4 mph N/A   Clear
6:56 PM 70.0 °F 18.0 °F 14% 29.66 in 10.0 mi West 15.0 mph 23.0 mph N/A   Clear
7:56 PM 70.0 °F 19.0 °F 14% 29.64 in 10.0 mi West 17.3 mph 29.9 mph 0.01 in   Overcast
8:56 PM 68.0 °F 19.0 °F 15% 29.68 in 10.0 mi West 16.1 mph 23.0 mph N/A   Mostly Cloudy
9:56 PM 63.0 °F 21.0 °F 20% 29.70 in 10.0 mi WSW 11.5 mph - N/A   Clear
10:56 PM 57.9 °F 21.0 °F 24% 29.71 in 10.0 mi WSW 15.0 mph - N/A   Clear
11:56 PM 57.0 °F 21.9 °F 26% 29.71 in 10.0 mi SW 17.3 mph - N/A   Clear